• In Czech Republic
  • List of Countries
  • For 7 days
  • Water Temperature
  • Satellite Maps
  • Weather Map
  • Weather Widgets
  • user-avatar
    Login

    Hourly Weather Sydney

    Today, 23 November, Thursday

    Time Temperature Precipitation Wind Pressure Humidity
    00:00 +17°C° 0 mm 2 mps 762 mmHg 91%
    01:00 +17°C° 0 mm 2 mps 762 mmHg 92%
    02:00 +16°C° 0 mm 2 mps 762 mmHg 92%
    03:00 +16°C° 0 mm 2 mps 762 mmHg 93%
    04:00 +16°C° 0 mm 2 mps 761 mmHg 93%
    05:00 +19°C° 0 mm 1 mps 762 mmHg 85%
    06:00 +20°C° 0 mm 1 mps 762 mmHg 77%
    07:00 +22°C° 0 mm 1 mps 762 mmHg 69%
    08:00 +24°C° 0 mm 1 mps 762 mmHg 60%
    09:00 +26°C° 0 mm 2 mps 761 mmHg 52%
    10:00 +28°C° 0 mm 2 mps 761 mmHg 43%
    11:00 +29°C° 0 mm 3 mps 761 mmHg 41%
    12:00 +29°C° 0 mm 4 mps 761 mmHg 39%
    13:00 +30°C° 0 mm 4 mps 760 mmHg 37%
    14:00 +30°C° 0 mm 5 mps 760 mmHg 39%
    15:00 +29°C° 0 mm 5 mps 760 mmHg 41%
    16:00 +29°C° 0 mm 5 mps 759 mmHg 43%
    17:00 +26°C° 0.2 mm 5 mps 760 mmHg 54%
    18:00 +23°C° 0.2 mm 5 mps 760 mmHg 64%
    19:00 +21°C° 0.2 mm 5 mps 760 mmHg 75%
    20:00 +20°C° 0 mm 5 mps 760 mmHg 78%
    21:00 +20°C° 0 mm 4 mps 761 mmHg 82%
    22:00 +19°C° 0 mm 4 mps 761 mmHg 85%
    23:00 +19°C° 0 mm 4 mps 761 mmHg 87%

    Tomorrow, 24 November, Friday

    Time Temperature Precipitation Wind Pressure Humidity
    00:00 +19°C° 0 mm 4 mps 761 mmHg 88%
    01:00 +18°C° 0 mm 4 mps 760 mmHg 90%
    02:00 +18°C° 0 mm 3 mps 760 mmHg 91%
    03:00 +17°C° 0 mm 3 mps 760 mmHg 91%
    04:00 +17°C° 0 mm 3 mps 760 mmHg 92%
    05:00 +19°C° 0 mm 2 mps 761 mmHg 84%
    06:00 +21°C° 0 mm 2 mps 761 mmHg 75%
    07:00 +23°C° 0 mm 2 mps 761 mmHg 67%
    08:00 +27°C° 0 mm 2 mps 761 mmHg 56%
    09:00 +30°C° 0 mm 3 mps 761 mmHg 45%
    10:00 +34°C° 0 mm 3 mps 761 mmHg 34%
    11:00 +34°C° 0 mm 4 mps 761 mmHg 32%
    12:00 +35°C° 0 mm 4 mps 761 mmHg 30%
    13:00 +35°C° 0 mm 5 mps 760 mmHg 28%
    14:00 +33°C° 0 mm 5 mps 760 mmHg 33%
    15:00 +32°C° 0 mm 5 mps 760 mmHg 38%
    16:00 +29°C° 0 mm 5 mps 760 mmHg 42%
    17:00 +28°C° 0 mm 5 mps 760 mmHg 48%
    18:00 +26°C° 0 mm 5 mps 760 mmHg 53%
    19:00 +25°C° 0 mm 5 mps 761 mmHg 59%
    20:00 +23°C° 0 mm 4 mps 761 mmHg 63%
    21:00 +22°C° 0 mm 4 mps 762 mmHg 68%
    22:00 +21°C° 0 mm 4 mps 762 mmHg 73%
    23:00 +20°C° 0 mm 3 mps 762 mmHg 75%

    Day after tomorrow, 25 November, Saturday

    Time Temperature Precipitation Wind Pressure Humidity
    00:00 +20°C° 0 mm 3 mps 762 mmHg 77%
    01:00 +19°C° 0 mm 2 mps 762 mmHg 79%
    02:00 +19°C° 0 mm 2 mps 762 mmHg 80%
    03:00 +19°C° 0 mm 2 mps 761 mmHg 82%
    04:00 +18°C° 0 mm 2 mps 761 mmHg 83%
    05:00 +20°C° 0 mm 2 mps 762 mmHg 76%
    06:00 +23°C° 0 mm 2 mps 762 mmHg 69%
    07:00 +25°C° 0 mm 2 mps 762 mmHg 61%
    08:00 +27°C° 0 mm 2 mps 762 mmHg 53%
    09:00 +29°C° 0 mm 3 mps 762 mmHg 45%
    10:00 +31°C° 0 mm 3 mps 762 mmHg 37%
    11:00 +33°C° 0 mm 4 mps 762 mmHg 35%
    12:00 +33°C° 0 mm 4 mps 761 mmHg 33%
    13:00 +34°C° 0 mm 5 mps 761 mmHg 31%
    14:00 +33°C° 0 mm 5 mps 761 mmHg 34%
    15:00 +32°C° 0 mm 6 mps 761 mmHg 37%
    16:00 +30°C° 0 mm 6 mps 760 mmHg 40%
    17:00 +28°C° 0 mm 5 mps 761 mmHg 51%
    18:00 +26°C° 0 mm 5 mps 761 mmHg 61%
    19:00 +23°C° 0 mm 4 mps 762 mmHg 71%
    20:00 +22°C° 0 mm 4 mps 762 mmHg 77%
    21:00 +21°C° 0 mm 4 mps 762 mmHg 84%
    22:00 +20°C° 0 mm 3 mps 763 mmHg 90%
    23:00 +20°C° 0 mm 3 mps 762 mmHg 91%

    26 November, Sunday

    Time Temperature Precipitation Wind Pressure Humidity
    00:00 +19°C° 0 mm 2 mps 762 mmHg 93%
    01:00 +19°C° 0 mm 2 mps 761 mmHg 95%
    02:00 +19°C° 0 mm 2 mps 761 mmHg 95%
    03:00 +20°C° 0 mm 1 mps 761 mmHg 95%
    04:00 +20°C° 0 mm 1 mps 761 mmHg 95%
    05:00 +20°C° 0 mm 2 mps 761 mmHg 91%
    06:00 +21°C° 0 mm 2 mps 761 mmHg 86%
    07:00 +23°C° 0 mm 2 mps 762 mmHg 81%
    08:00 +25°C° 0 mm 3 mps 762 mmHg 69%
    09:00 +28°C° 0 mm 3 mps 762 mmHg 57%
    10:00 +30°C° 0 mm 3 mps 761 mmHg 46%
    11:00 +32°C° 0 mm 4 mps 761 mmHg 42%
    12:00 +33°C° 0 mm 5 mps 760 mmHg 38%
    13:00 +35°C° 0 mm 5 mps 760 mmHg 34%
    14:00 +34°C° 0 mm 6 mps 759 mmHg 38%
    15:00 +33°C° 0 mm 6 mps 759 mmHg 42%
    16:00 +32°C° 0 mm 7 mps 759 mmHg 47%
    17:00 +29°C° 0 mm 7 mps 759 mmHg 56%
    18:00 +27°C° 0 mm 6 mps 759 mmHg 65%
    19:00 +24°C° 0 mm 6 mps 760 mmHg 74%
    20:00 +24°C° 0.1 mm 6 mps 760 mmHg 77%
    21:00 +23°C° 0.1 mm 5 mps 760 mmHg 81%
    22:00 +22°C° 0.1 mm 5 mps 760 mmHg 84%
    23:00 +22°C° 0 mm 5 mps 760 mmHg 86%

    27 November, Monday

    Time Temperature Precipitation Wind Pressure Humidity
    00:00 +21°C° 0 mm 5 mps 759 mmHg 89%
    01:00 +21°C° 0 mm 4 mps 759 mmHg 91%
    02:00 +21°C° 0 mm 4 mps 759 mmHg 92%
    03:00 +21°C° 0 mm 4 mps 759 mmHg 92%
    04:00 +21°C° 0 mm 4 mps 759 mmHg 93%
    05:00 +21°C° 0 mm 4 mps 759 mmHg 89%
    06:00 +22°C° 0 mm 4 mps 759 mmHg 85%
    07:00 +23°C° 0 mm 4 mps 760 mmHg 82%
    08:00 +25°C° 0.1 mm 3 mps 760 mmHg 78%
    09:00 +26°C° 0.1 mm 3 mps 760 mmHg 75%
    10:00 +26°C° 0.1 mm 2 mps 760 mmHg 71%
    11:00 +26°C° 0.8 mm 2 mps 760 mmHg 74%
    12:00 +25°C° 0.8 mm 2 mps 759 mmHg 77%
    13:00 +25°C° 0.8 mm 2 mps 759 mmHg 80%
    14:00 +26°C° 0.2 mm 3 mps 759 mmHg 74%
    15:00 +27°C° 0.2 mm 3 mps 758 mmHg 67%
    16:00 +28°C° 0.2 mm 4 mps 758 mmHg 61%
    17:00 +27°C° 0 mm 5 mps 758 mmHg 66%
    18:00 +25°C° 0 mm 5 mps 759 mmHg 71%
    19:00 +23°C° 0 mm 6 mps 759 mmHg 76%
    20:00 +23°C° 0 mm 5 mps 759 mmHg 79%
    21:00 +22°C° 0 mm 5 mps 759 mmHg 82%
    22:00 +21°C° 0 mm 5 mps 760 mmHg 86%
    23:00 +21°C° 0 mm 4 mps 759 mmHg 87%

    28 November, Tuesday

    Time Temperature Precipitation Wind Pressure Humidity
    00:00 +20°C° 0 mm 4 mps 759 mmHg 89%
    01:00 +20°C° 0 mm 3 mps 759 mmHg 90%
    02:00 +20°C° 0 mm 3 mps 759 mmHg 91%
    03:00 +19°C° 0 mm 3 mps 759 mmHg 91%
    04:00 +19°C° 0 mm 2 mps 759 mmHg 92%
    05:00 +21°C° 0 mm 2 mps 760 mmHg 83%
    06:00 +24°C° 0 mm 2 mps 760 mmHg 74%
    07:00 +26°C° 0 mm 1 mps 761 mmHg 65%
    08:00 +28°C° 0 mm 2 mps 760 mmHg 59%
    09:00 +30°C° 0 mm 3 mps 760 mmHg 53%
    10:00 +31°C° 0 mm 3 mps 760 mmHg 48%
    11:00 +33°C° 0 mm 4 mps 760 mmHg 47%
    12:00 +33°C° 0 mm 4 mps 760 mmHg 47%
    13:00 +33°C° 0 mm 4 mps 759 mmHg 46%
    14:00 +32°C° 0 mm 4 mps 759 mmHg 50%
    15:00 +30°C° 0 mm 4 mps 759 mmHg 54%
    16:00 +29°C° 0 mm 4 mps 759 mmHg 58%
    17:00 +28°C° 0.1 mm 3 mps 760 mmHg 67%
    18:00 +26°C° 0.1 mm 2 mps 760 mmHg 75%
    19:00 +24°C° 0.1 mm 2 mps 761 mmHg 83%
    20:00 +24°C° 0.4 mm 2 mps 761 mmHg 86%
    21:00 +22°C° 0.4 mm 3 mps 762 mmHg 89%
    22:00 +22°C° 0.4 mm 4 mps 762 mmHg 92%
    23:00 +22°C° 0 mm 4 mps 762 mmHg 91%
    Show more